www.pogodaiklimat.ru
ПОГОДА в Улан-Баторе
Время
(UTC), дата
18 22.09
21 22.09
00 23.09
03 23.09
06 23.09
09 23.09
12 23.09
15 23.09
18 23.09
21 23.09
00 24.09
03 24.09
06 24.09
09 24.09
12 24.09
15 24.09
18 24.09
21 24.09
00 25.09
03 25.09
06 25.09
09 25.09
12 25.09
15 25.09
18 25.09
21 25.09
00 26.09
03 26.09
06 26.09
09 26.09
12 26.09
15 26.09
18 26.09
21 26.09
00 27.09
03 27.09
06 27.09
09 27.09
12 27.09
15 27.09
18 27.09
21 27.09
00 28.09
03 28.09
06 28.09
09 28.09
12 28.09
15 28.09
18 28.09
21 28.09
00 29.09
03 29.09
06 29.09
09 29.09
12 29.09
15 29.09
Ветер
(напр.,м/с)
Видим. Явления Облачность Т
(С)
Тd
(С)
f
(%)
Тe
(С)
Тes
(С)
Комфортность P
(гПа)
Po
(гПа)
Тmin
(С)
Tmax
(С)
R
(мм)
R24
(мм)
S
(см)
штиль 0 н/о ясно +6.2 -0.7 61 +6 +6 тепло 1018.8 868.4
СВ 2 н/о ясно +6.7 +0.8 66 +5 +5 по сезону 1019.0 868.8
В 2 50 км ясно +7.3 +0.3 61 +6 +6 тепло 1020.2 870.1 +3.9
штиль 0 10 км дым ясно +13.2 +1.2 44 +13 +23 тепло 1017.0 870.3
С 3 50 км 3/3 1000 м
[Cu med, cong]
+16.7 +0.4 33 +17 +21 тепло 1014.2 869.5
СЗ 4 50 км 8/3 1000 м
[Cu med, cong Ac cast Ci]
+15.4 +0.1 35 +15 +15 тепло 1014.6 869.2
С 2 н/о 6/0 2000 м
[Ac lent Ci]
+10.9 +0.1 47 +10 +10 по сезону 1017.9 869.9 +17.3
СВ 1 н/о 3/0 2000 м
[Ac trans]
+8.5 0.0 55 +8 +8 тепло 1019.6 870.2
штиль 0 н/о 3/0 2000 м
[Ac cast]
+7.0 -0.2 60 +7 +7 тепло 1020.4 870.2
СВ 2 н/о ясно +7.6 +1.5 65 +6 +6 тепло 1019.6 869.8
В 2 50 км 8/0 2000 м
[Ac und]
+8.5 +1.2 60 +7 +7 тепло 1019.3 870.0 +5.9
СВ 2 50 км 9/3 1000 м
[Cu hum Ac lent Cs]
+14.1 +2.7 46 +14 +17 тепло 1015.4 869.3
Ю 4 50 км 9/4 1000 м
[Cu med, cong Ac trans Cs]
+17.4 -0.3 30 +17 +19 тепло 1010.8 866.9
ЮЗ 2 50 км 8/3 1000 м
[Cu med, cong Ac trans Ci sp]
+19.0 +0.1 28 +20 +20 тепло 1008.2 865.4
СВ 3 н/о 3/0 2000 м
[Ac lent]
+15.0 +1.2 39 +15 +15 тепло 1009.3 864.5 +19.6
В 1 н/о 3/0 2000 м
[Ac trans]
+13.3 +1.0 43 +14 +14 тепло 1010.1 864.4
В 1 н/о 6/0 2000 м
[Ac As]
+11.6 +0.4 46 +12 +12 тепло 1010.2 863.7
штиль 0 н/о 6/0 2000 м
[Ac trans Ci]
+10.1 +0.7 52 +10 +10 тепло 1009.7 862.5
СВ 2 50 км 5/0 2000 м
[Ac lent Ci]
+12.0 -0.2 43 +11 +12 тепло 1007.9 861.9 +9.8
В 3 50 км 9/0
[Cs]
+18.9 0.0 28 +19 +24 тепло 1003.5 861.3
З 6 50 км 9/0 2000 м
[Ac lent Cs]
+22.8 -1.3 20 +22 +24 комфорт 999.0 859.2
З 6
{16}
50 км {пыльная буря} 9/3 1000 м
[Cu med, cong Ac cast Cs]
+23.1 -4.9 15 +21 +22 комфорт 998.0 858.5
СВ 2 н/о {пыльная буря} 9/4 1000 м
[Sc Ac As]
+17.6 +1.2 33 +18 +18 тепло 1001.0 858.6 +24.2
С 2 н/о 8/0 2000 м
[Ac As]
+14.5 +3.7 48 +14 +14 тепло 1003.4 859.2
З 1 н/о {дождь} 9/9 600 м
[Sc]
+8.9 +6.0 82 +8 +8 тепло 1010.0 862.2
штиль 0 н/о {дождь} 5/0 2000 м
[Ac trans Ci]
+7.1 +3.7 79 +6 +6 тепло 1011.5 862.6
З 3 50 км {дождь} 8/4 600 м
[Sc Ac lent Ci]
+8.3 +4.5 77 +6 +6 тепло 1012.1 863.7 +6.2 1
СЗ 5 50 км 1/0 2000 м
[Ac cast]
+10.1 -5.8 32 +8 +11 по сезону 1013.5 865.8
СЗ 6 50 км ясно +11.6 -8.8 23 +9 +12 по сезону 1012.4 865.6
З 5 50 км ясно +11.7 -11.1 19 +10 +11 по сезону 1013.2 866.3
штиль 0 н/о ясно +7.1 -9.3 30 +7 +7 по сезону 1017.8 868.0 +12.7
штиль 0 н/о 4/0
[Cs]
+3.6 -7.2 45 +3 +3 по сезону 1021.7 869.6
штиль 0 н/о ясно +0.8 -6.5 58 0 0 по сезону 1024.7 870.7
штиль 0 н/о 3/0
[Ci]
-0.3 -7.3 59 -1 -1 по сезону 1026.5 871.6
В 2 50 км 9/0 2000 м
[Ac lent Cs]
+0.9 -7.6 53 -2 -2 по сезону 1027.2 872.9 -0.7
штиль 0 50 км 8/0
[Cs]
+8.8 -8.2 29 +9 +16 тепло 1023.6 873.8
С 4 50 км 9/0
[Cs]
+10.5 -8.2 26 +9 +13 по сезону 1021.5 872.8
СЗ 3 50 км 4/0
[Ci]
+10.3 -6.5 30 +9 +10 по сезону 1021.2 872.5
С 2 н/о 6/0 2000 м
[Ac cast Ci]
+6.2 -4.8 45 +5 +5 по сезону 1025.4 874.0 +11.4
СВ 1 н/о 8/0 2000 м
[Ac lent Ci fib]
+4.3 -5.2 50 +4 +4 по сезону 1028.1 875.4
В 1 н/о 3/0
[Ci]
+2.5 -4.9 58 +1 +1 по сезону 1029.9 876.0
штиль 0 н/о ясно +0.4 -5.4 65 -0 -0 по сезону 1031.7 876.4
штиль 0 50 км ясно +2.0 -5.2 59 +1 +2 по сезону 1031.9 877.4 -0.3
З 1 10 км дым 3/3 1000 м
[Cu hum]
+8.0 -4.4 41 +8 +13 тепло 1028.3 877.4
С 4 50 км 5/5 1000 м
[Cu med, cong]
+10.6 -6.2 30 +9 +11 по сезону 1025.2 876.0
СЗ 5 50 км 4/4 1000 м
[Cu med, cong]
+9.7 -7.9 28 +7 +8 по сезону 1024.9 875.3
штиль 0 н/о 1/0 2000 м
[Ac lent]
+4.2 -6.7 45 +4 +4 по сезону 1028.9 876.0 +10.9
штиль 0 н/о ясно +1.9 -5.2 59 +1 +1 по сезону 1030.5 876.2
В 2 н/о 3/0 2000 м
[Ac trans]
+0.6 -5.8 62 -2 -2 по сезону 1030.6 875.6
В 1 н/о 1/0 2000 м
[Ac lent]
-0.6 -6.2 66 -2 -2 по сезону 1030.1 874.5
В 3 50 км 8/0 2000 м
[Ac lent Cs]
+0.7 -6.2 60 -3 -3 по сезону 1027.8 873.3 -1.1
В 2 10 км дым 8/0 2000 м
[Ac lent Cc]
+9.3 -6.9 31 +8 +12 тепло 1021.2 872.0
З 6 50 км 5/1 1000 м
[Cu hum Ac lent Cc]
+13.8 -5.3 26 +12 +14 тепло 1015.5 869.3
ЮЗ 3 50 км 8/4 1000 м
[Cu med, cong Ac cast Ci]
+14.3 -6.0 24 +14 +14 тепло 1012.7 867.1
ЮЗ 2 н/о 8/0 2000 м
[Ac As Cs]
+11.4 -6.0 29 +11 +11 тепло 1014.3 867.1 +14.9
штиль 0 н/о 4/0 2000 м
[Ac lent]
+7.3 -3.0 48 +7 +7 тепло 1017.1 867.5
Местоположение метеостанции Улан-Батор (Монголия): широта 47.92 долгота 106.85 высота над уровнем моря 1306 м.
В архиве по умолчанию представлена погода в Улан-Баторе за последнюю неделю. Архивные данные за месяц целиком и за предыдущие месяцы, начиная с января 2011 года, Вы можете получить, выбрав интересующий диапазон дат из раскрывающегося списка и нажав кнопку "Найти!".
*Определитесь, кто Вы:
Внимание! Время в таблицах - всемирное. Для получения местного времени необходимо прибавить поправку, которая равна 8 ч.
Смотрите также архив погоды в соседних городах и на ближайших метеорологических станциях:
Партнеры нашего сайта:      
Пояснения к столбцам:
  • Ветер - указаны скорость ветра в м/с - средняя за 10 мин, порывы в срок и между сроками (в фигурных скобках) и направление, откуда дует ветер: С - северный,
  • СВ - северо-восточный, В - восточный, ЮВ - юго-восточный, Ю - южный, ЮЗ - юго-западный, З - западный, СЗ - северо-западный.
  • Видимость - горизонтальная дальность видимости в метрах или километрах. При видимости от 1 до 10 км при отсутствии осадков обычно наблюдается дымка, при ухудшении видимости до 1 км и менее - туман. В сухую погоду видимость может ухудшаться дымом, пылью или мглою.
  • Явления - указаны атмосферные явления, наблюдавшиеся в срок или в последний час перед сроком; фигурными скобками обозначены явления, наблюдавшиеся между сроками (за 1-3 часа до срока); квадратными скобками обозначены град или гололедные отложения с указанием их диаметра в мм.
  • Облачность - указаны через наклонную черту общая и нижняя облачность в баллах и высота нижней границы облаков в метрах; квадратными скобками обозначены формы облаков: Ci - перистые, Cs - перисто-слоистые, Cc - перисто-кучевые, Ac - высококучевые, As - высокослоистые, Sc - слоисто-кучевые, Ns - слоисто-дождевые, Cu - кучевые, Cb - кучево-дождевые. Подробнее классификацию облаков см. в Атласе облаков (PDF).
  • T - Температура воздуха - температура, измеренная на высоте 2 м над землей.
  • Td - Температура точки росы - температура, при понижении до которой содержащийся в воздухе водяной пар достигнет насыщения.
  • f - Относительная влажность воздуха - влажноcть воздуха, измеренная на высоте 2 м над землей.
  • Te - Эффективная температура - температура, которую ощущает одетый по сезону человек в тени. Характеристика душности погоды. При расчете учитывается влияние влажности воздуха и скорости ветра на теплоощущения человека.
  • Tes - Эффективная температура на солнце - температура, которую ощущает человек, с поправкой на солнечный нагрев. Характеристика знойности погоды. Зависит от высоты солнца над горизонтом, облачности и скорости ветра. Ночью, в пасмурную погоду, а также при ветре 12 м/с и более поправка равна нулю.
  • P - Атмосферное давление - приведенное к уровню моря атмосферное давление.
  • Po - Атмосферное давление - измеренное на уровне метеостанции атмосферное давление.
  • Tmin - Минимальная температура - минимум температуры воздуха на высоте 2 м над землей.
  • Tmax - Максимальная температура - максимум температуры воздуха на высоте 2 м над землей.
  • R - Количество осадков - Количество выпавших осадков за период времени, мм. При наведении курсора мыши на число - период времени, за который выпало указанное количество осадков.
  • R24 - Количество осадков - Количество выпавших осадков за 24 часа, мм.
  • S - Снежный покров - Высота снежного покрова, см. При наведении курсора мыши на число - состояние снежного покрова и степень покрытия местности в баллах.